Location: *
(46.1006°N, 1.8394°E)
Time: 15:55:26
(UTC+00:00)

Meteor 1-22 Rocket - Pass Details

Date: 20 September 2019
Orbit: 786 x 942 km, 81.2° (Epoch: 22 October)

Event Time Altitude Azimuth Distance (km) Brightness Sun altitude
Exits shadow 19:51:38 19° 167° (SSE) 2,088 5.9 -20.4°
Maximum altitude 19:56:01 57° 95° (E) 1,097 4.4 -21.1°
Drops below altitude 10° 20:01:59 10° 18° (NNE) 2,664 6.9 -22.0°
Sets 20:04:31 0° 15° (NNE) 3,605 7.6 -22.4°
